Location: Unspecified
(0.0000°N, 0.0000°E)
Time: 17:48:18
(UTC+00:00)

Vanguard 1 Rocket - Pass Details

Date: 16 April 2026
Orbit: 655 x 4212 km, 34.3° (Epoch: 17 May)

Event Time Altitude Azimuth Distance (km) Brightness Sun altitude
Rises 23:33:10 0° 291° (WNW) 8,378 12.4 -77.7°
Reaches altitude 10° 23:42:37 10° 307° (NW) 7,396 12.0 -78.8°
Maximum altitude 23:58:29 19° 346° (NNW) 6,056 11.5 -79.6°
Drops below altitude 10° 00:11:11 10° 27° (NNE) 5,852 11.5 -79.2°
Sets 00:17:13 0° 44° (NE) 6,230 11.8 -78.7°
